STARLINK-2489

decayed
NORAD ID: 48146 Int'l Des: 2021-027 Owner: SPXS Country: US Constellation: starlink
LEOCIRCULAR

关于 STARLINK-2489

正在加载描述...

高度历史

Altitude vs Time

uPlot chart will show altitude changes over time

两行轨道根数

1 48146U 21027BG 24160.10336895 .27189666 12143-4 37711-2 0 9994
2 48146 53.0316 128.0781 0004639 217.7130 228.6598 16.34304347176103
Epoch: Jun 8, 2024 • Age: 11143 hours

当前状态

Position data unavailable
发射日期 Apr 7, 2021
运行时间 4.4 years
衰减日期 Jun 8, 2024
类型 internet

技术详情

分类 Payload
质量 260.00 kg
干质量 248.00 kg
总质量 260.00 kg
长度 0.20 m
直径 2.80 m
跨度 9.00 m
形状 Box + pan
制造商 SPXS
平台类型 Starlink
阶段状态 Unknown Transfer Status
所有者/国家 SPXS/US

大型星座

Loading constellations...